Погода в Дунае

Россия / Санкт-Петербург и Ленинградская область     59°58′36″N   30°56′11″E
темп.,
°C
ветер,
м/с
пор.,
м/с
влажн.,
%
обл.,
%
осадки,
мм/ч
давл.,
гПа
погр.,
м
1 августа, вс
вс100:00+15юз23795 0.0 100258
03:00+13юз39943 0.0 1003200
06:00+14ююз399596 0.0 1003285
09:00+18ююз3679100 0.3 1003441
12:00+16юз269599 2.8 1002365
15:00+23юз594814 4.1 10011784
18:00+20зюз385757 0.1 1001554
21:00+17юз411845 0.4 1002498
2 августа, пн
пн200:00+15юз4109793 0.0 1003433
03:00+14юз3898100 0.0 1004262
06:00+14юз3894100 0.0 1005295
09:00+18юз4766100 0.0 1005722
12:00+21ю3457100 0.0 10041212
15:00+18ююв4777100 0.1 1003404
18:00+16ююв2487100 0.1 1002277
21:00+15зсз1198100 2.3 100144
3 августа, вт
вт300:00+15сз1299100 1.8 100085
03:00+14зюз2298100 2.1 100039
06:00+14з249896 1.4 1000162
09:00+16зюз269047 2.0 1001367
12:00+20зюз575211 0.4 10021561
15:00+18зюз7106043 0.6 10041330
18:00+17з610666 0.1 10051172
21:00+15з4107694 0.2 1007701
4 августа, ср
ср400:00+11зюз36855 0.1 1009125
03:00+11з38885 0.1 1011165
06:00+11з22777 0.0 101353
09:00+17зюз24517 0.0 1014542
12:00+20зсз24357 0.0 10142115
15:00+21сз133358 0.0 10152284
18:00+20зюз224381 0.0 10161002
21:00+14з117297 0.0 101610
5 августа, чт
чт500:00+13ю117299 0.0 101718
03:00+13ююв116987 0.0 101730
06:00+12ююв227812 0.0 101746
09:00+18юв125445 0.0 1016378
12:00+21ююв234324 0.0 10161294
15:00+22юв3343100 0.0 10151868
18:00+20св245417 0.0 1015570
21:00+16всв247733 0.0 101575